Regional Weather Roundup
Issued by NWS

Home | Current Version | Previous Version | Graphics & Text | Print | Product List | Glossary On
Versions: 1 2 3 4 5 6 7 8 9 10 11 12 13 14 15 16 17 18 19 20 21 22 23 24 25 26 27 28 29 30 31 32 33 34 35 36 37 38 39 40 41 42 43 44 45 46 47 48 49 50
000
ASUS43 KFSD 200802
RWRSD

WEATHER ROUNDUP FOR SOUTH DAKOTA
NATIONAL WEATHER SERVICE SIOUX FALLS SD
300 AM CDT THU JUL 20 2017

NOTE: "FAIR" INDICATES FEW OR NO CLOUDS BELOW 12,000 FEET WITH NO
SIGNIFICANT WEATHER AND/OR OBSTRUCTIONS TO VISIBILITY.


SDZ001>005-009-010-012>017-200900-
NORTHWEST AND NORTH CENTRAL SOUTH DAKOTA

CITY           SKY/WX    TMP DP  RH WIND       PRES   REMARKS
BUFFALO          N/A     67  59  75 SE12      29.99F
FAITH            N/A     68  64  87 SE9       30.05S
MOBRIDGE       MOCLDY    65  63  93 N3        29.98S
$$

SDZ012>016-024>037-041>051-057-063-072>074-200900-
SOUTHWEST AND SOUTH CENTRAL SOUTH DAKOTA

CITY           SKY/WX    TMP DP  RH WIND       PRES   REMARKS
RAPID CTY ARPT CLOUDY    71  61  70 CALM      30.10R
PIERRE         CLOUDY    73  70  90 SE3       29.99R
CUSTER         CLOUDY    65  53  65 MISG      30.23F
ELLSWORTH AFB  MOCLDY    71  62  71 W6        30.10R
PHILIP         MOCLDY    72  69  90 NE5       30.03R
PINE RIDGE     LGT RAIN  69  67  93 CALM      30.13S
SPEARFISH      CLOUDY    70  59  68 E8        30.13S
WINNER         FAIR      75  66  73 E6        29.99F
$$

SDZ004>011-016>023-039-040-200900-
NORTHEAST SOUTH DAKOTA

CITY           SKY/WX    TMP DP  RH WIND       PRES   REMARKS
ABERDEEN       MOCLDY    66  66 100 NW3       29.98R FOG
WATERTOWN      PTCLDY    66  66 100 CALM      29.98R
BROOKINGS      CLOUDY    71  69  93 E3        29.99R
SISSETON         N/A     63  63 100 W3        29.94F
$$

SDZ017-020-022-023-036>040-048>070-200900-
SOUTHEAST SOUTH DAKOTA

CITY           SKY/WX    TMP DP  RH WIND       PRES   REMARKS
SIOUX FALLS    CLOUDY    73  70  90 NE9       29.96R
HURON          MOCLDY    73  71  93 N3        29.97R
CHAMBERLAIN    MOCLDY    76  73  91 NE9       29.98S
MITCHELL       MOCLDY    75  73  93 N6        29.95F
YANKTON        CLOUDY    77  68  73 NW9       29.91S
$$

ABBREVIATIONS USED IN REMARKS
   TC - TEMPERATURE IN CELSIUS
  WCI - WIND CHILL INDEX
   HX - HEAT INDEX
  VSB - VISIBILITY





USA.gov is the U.S. government's official web portal to all federal, state and local government web resources and services.